COSMOS 2491 DEB, 47111

Orbit data source: Space-Track

COSMOS 2491 DEB, 47111 is space debris in LEO originally from a launch on Wed, 25 Dec 2013 UTC launched from the Plesetsk Missile And Space Complex (PKMTR). Debris objects in space refer to the collection of defunct objects orbiting the Earth. Examples of debris include non-operational satellites, rocket bodies, and fragments generated from explosions, collisions, or faulty payload assembly.

Loading next visibility...
Identifier
47111, 2013-076AG
Orbit
LEO
Country
Flag of CISCIS
Related business
Manufacturer
TsNIIKhM
Mission
Spacecraft
Bus & Motor
Unknown
Mass
Unknown
Launch date (UTC)
2013-12-25 (12 years ago)
Launch vehicle
Unknown
Launch site
Plesetsk Missile And Space Complex (PKMTR)
Object type
Payload
Rocket body
Debris
Shape & HBR
Unknown
Radar Cross Section
Small (<0.1 m²)

Expand to show TLE details & history
Last TLE update: 3 days ago

TLE from 3 days ago
0 COSMOS 2491 DEB
1 47111U 13076AG  25258.90304274  .00000938  00000-0  53783-2 0  9990
2 47111  82.4491 317.1135 0117888 128.9101 232.2570 12.57577726104757
Epoch: 2025-09-15T21:40Z
TLE epoch observation values (Epoch: 2025-09-15T21:40:22.892Z)
Latitude
-0.00004°
Longitude
-3.08291°
Altitude
1,492.727 km
Speed
7.092 km/s
True Right ascension
21h 08m 27s
True Declination
0° 00' 00"
Sunlit
Object was in full shadow at epoch
Visualization orbit readout
Latitude
Unknown
Longitude
Unknown
Altitude
Unknown
Speed
Unknown
Apparent Right ascension
Unknown
Apparent Declination
Unknown
Sunlit
N/A
Visualization observer readout
Local Sidereal Time
17:15:09
Azimuth
Unknown
Elevation
Unknown
Doppler factor
Unknown
Orbital elements
Apogee altitude
1,522.342 km
Perigee altitude
1,338.238 km
Semi-major axis
7,808.427 km
Eccentricity
0.01179
Inclination
82.4491°
RAAN
317.1135°
Arg. of periapsis
128.9101°
True anomaly
231.19837°
Mean anomaly
232.257°
Eccentric anomaly
231.72673°
Mean motion
3.14556 °/min
Orbital period
114.45 mins
BSTAR
0.0053783
Loading maneuver chart data...
Computing Atmospheric mass density...
Loading historical data...
Loading historical data...
Loading historical data...
Loading historical data...
Loading historical data...
Loading historical data...
Loading historical data...

Documentation

Showing up to 5 results
|